EW6055 Weather Reports


Display with metric or nautical units.
time (UTC)temp
F
wind
direction
speed
MPH
gust
MPH
rain 1hr
in
rain 24hr
in
rain mn
in
humidity
%
barometer
mb
20260505075503 54 196 1.0 3.0 0.00 0.00 0.00 86 1011.7
20260505075003 54 191 1.0 3.0 0.00 0.00 0.00 86 1011.8
20260505074503 54 191 1.0 2.0 0.00 0.00 0.00 85 1011.7
20260505074003 54 191 1.0 4.0 0.00 0.00 0.00 86 1011.5
20260505073503 54 193 1.0 4.0 0.00 0.00 0.00 85 1011.5
20260505073003 54 198 1.0 7.0 0.00 0.00 0.00 85 1011.5
20260505072503 54 192 1.0 7.0 0.00 0.00 0.00 85 1011.5
20260505072024 54 190 1.0 6.0 0.00 0.00 0.00 85 1011.4
20260505071503 54 191 1.0 6.0 0.00 0.00 0.00 84 1011.3
20260505071003 55 194 2.0 6.0 0.00 0.00 0.00 84 1011.2
20260505070503 55 192 2.0 6.0 0.00 0.00 0.00 84 1011.2
20260505070024 55 185 1.0 6.0 0.00 0.00 0.00 84 1011.1
20260505065525 55 181 1.0 4.0 0.00 0.00 0.00 83 1011.0
20260505065003 55 181 1.0 4.0 0.00 0.00 0.00 83 1011.0
20260505064525 55 186 1.0 3.0 0.00 0.00 0.00 83 1011.0
20260505064024 55 189 1.0 5.0 0.00 0.00 0.00 83 1010.9
20260505063524 55 178 1.0 5.0 0.00 0.00 0.00 82 1010.8
20260505063003 56 154 1.0 5.0 0.00 0.00 0.00 82 1010.9
20260505062503 56 160 1.0 6.0 0.00 0.00 0.00 82 1010.8
20260505062024 56 159 1.0 6.0 0.00 0.00 0.00 81 1010.7
20260505061503 56 151 1.0 4.0 0.00 0.00 0.00 81 1010.7
20260505061003 57 181 1.0 4.0 0.00 0.00 0.00 81 1010.7
20260505060503 57 185 2.0 9.0 0.00 0.00 0.00 80 1010.7
20260505060003 57 179 1.0 9.0 0.00 0.00 0.00 80 1010.7
20260505055503 57 173 1.0 5.0 0.00 0.00 0.00 80 1010.7
20260505055025 58 170 1.0 8.0 0.00 0.00 0.00 79 1010.7
20260505054503 58 177 1.0 8.0 0.00 0.00 0.00 79 1010.6
20260505054004 58 189 1.0 5.0 0.00 0.00 0.00 79 1010.6
20260505053503 59 188 1.0 8.0 0.00 0.00 0.00 78 1010.5
20260505053024 59 187 2.0 9.0 0.00 0.00 0.00 78 1010.4
20260505052503 59 189 3.0 11.0 0.00 0.00 0.00 78 1010.4
20260505052003 60 190 2.0 11.0 0.00 0.00 0.00 77 1010.4
20260505051503 60 187 2.0 9.0 0.00 0.00 0.00 77 1010.4
20260505051003 60 182 2.0 9.0 0.00 0.00 0.00 76 1010.4
20260505050503 60 180 3.0 10.0 0.00 0.00 0.00 76 1010.3
20260505041503 64 182 1.0 3.0 0.00 0.00 0.00 71 1009.6
20260505041003 64 183 1.0 2.0 0.00 0.00 0.00 71 1009.5
20260505040503 64 186 1.0 2.0 0.00 0.00 0.00 71 1009.4
20260505040004 65 190 1.0 2.0 0.00 0.00 0.00 70 1009.3
20260505035503 65 189 1.0 2.0 0.00 0.00 0.00 70 1009.3
20260505035003 65 191 1.0 2.0 0.00 0.00 0.00 71 1009.2
20260505034524 66 187 1.0 3.0 0.00 0.00 0.00 71 1009.1
20260505034025 66 191 1.0 3.0 0.00 0.00 0.00 70 1009.0
20260505033503 66 206 1.0 3.0 0.00 0.00 0.00 69 1009.0
20260505033003 67 198 1.0 3.0 0.00 0.00 0.00 69 1009.0
20260505032524 67 192 1.0 2.0 0.00 0.00 0.00 69 1008.9
20260505032003 67 193 1.0 4.0 0.00 0.00 0.00 69 1008.8
20260505031503 68 195 1.0 4.0 0.00 0.00 0.00 68 1008.8
20260505031003 68 202 1.0 4.0 0.00 0.00 0.00 67 1008.8
20260505030503 69 200 1.0 4.0 0.00 0.00 0.00 67 1008.7
20260505030004 69 194 1.0 2.0 0.00 0.00 0.00 67 1008.7
20260505025524 70 181 1.0 3.0 0.00 0.00 0.00 67 1008.6
20260505025003 70 154 1.0 5.0 0.00 0.00 0.00 67 1008.6
20260505024503 70 160 1.0 5.0 0.00 0.00 0.00 67 1008.5
20260505024003 70 150 1.0 2.0 0.00 0.00 0.00 66 1008.5
20260505023503 70 130 1.0 2.0 0.00 0.00 0.00 65 1008.5
20260505023003 71 143 1.0 3.0 0.00 0.00 0.00 65 1008.5
20260505022503 71 167 0.0 3.0 0.00 0.00 0.00 65 1008.5
20260505022004 71 166 0.0 3.0 0.00 0.00 0.00 65 1008.5
20260505021503 71 135 1.0 3.0 0.00 0.00 0.00 65 1008.5
20260505021004 71 118 1.0 3.0 0.00 0.00 0.00 64 1008.5
20260505020503 72 122 1.0 3.0 0.00 0.00 0.00 63 1008.4
20260505020003 72 157 1.0 3.0 0.00 0.00 0.00 63 1008.5
20260505015503 72 156 1.0 2.0 0.00 0.00 0.00 63 1008.5
20260505015024 72 136 1.0 2.0 0.00 0.00 0.00 63 1008.5
20260505014503 72 173 1.0 2.0 0.00 0.00 0.00 62 1008.5
20260505014003 72 177 1.0 3.0 0.00 0.00 0.00 62 1008.6
20260505013503 72 182 1.0 4.0 0.00 0.00 0.00 63 1008.5
20260505013003 72 187 1.0 4.0 0.00 0.00 0.00 62 1008.6
20260505012524 72 176 1.0 2.0 0.00 0.00 0.00 62 1008.7
20260505012003 72 166 1.0 3.0 0.00 0.00 0.00 62 1008.7
20260505011503 72 176 1.0 3.0 0.00 0.00 0.00 61 1008.8
20260505011024 73 181 1.0 3.0 0.00 0.00 0.00 61 1008.9
20260505010503 73 158 1.0 3.0 0.00 0.00 0.00 62 1008.9
20260505010024 72 148 1.0 3.0 0.00 0.00 0.00 61 1008.9
20260505005503 72 173 1.0 2.0 0.00 0.00 0.00 61 1008.9
20260505005024 72 183 1.0 2.0 0.00 0.00 0.00 61 1008.9
20260505004503 72 172 1.0 2.0 0.00 0.00 0.00 61 1008.9
20260505004003 72 179 1.0 2.0 0.00 0.00 0.00 61 1009.0
20260505003503 72 181 1.0 5.0 0.00 0.00 0.00 61 1009.0
20260505003024 73 178 1.0 5.0 0.00 0.00 0.00 60 1009.1
20260505002504 73 178 1.0 3.0 0.00 0.00 0.00 60 1009.1
20260505002006 73 184 1.0 3.0 0.00 0.00 0.00 60 1009.1
20260505001525 73 191 1.0 3.0 0.00 0.00 0.00 60 1009.1
20260505001003 73 187 1.0 2.0 0.00 0.00 0.00 60 1009.1
20260505000524 73 185 1.0 3.0 0.00 0.00 0.00 60 1009.1
20260505000004 73 194 1.0 3.0 0.00 0.00 0.00 61 1009.1
20260504235524 73 196 1.0 3.0 0.00 0.00 0.00 60 1009.1
20260504235004 73 182 1.0 3.0 0.00 0.00 0.00 60 1009.2
20260504234504 73 186 1.0 2.0 0.00 0.00 0.00 60 1009.3
20260504234003 73 183 1.0 4.0 0.00 0.00 0.00 60 1009.3
20260504233503 72 185 1.0 4.0 0.00 0.00 0.00 60 1009.3
20260504233003 73 211 1.0 5.0 0.00 0.00 0.00 59 1009.4
20260504232503 73 205 1.0 5.0 0.00 0.00 0.00 58 1009.4
20260504232003 73 192 1.0 4.0 0.00 0.00 0.00 58 1009.4
20260504231524 73 183 1.0 3.0 0.00 0.00 0.00 58 1009.5
20260504231003 73 147 1.0 6.0 0.00 0.00 0.00 60 1009.6
20260504230504 73 120 1.0 6.0 0.00 0.00 0.00 59 1009.6
20260504230003 73 171 1.0 3.0 0.00 0.00 0.00 59 1009.7
20260504225503 73 202 1.0 3.0 0.00 0.00 0.00 58 1009.7
20260504225005 73 203 1.0 3.0 0.00 0.00 0.00 59 1009.7
20260504224503 73 189 1.0 3.0 0.00 0.00 0.00 58 1009.8
20260504224003 72 176 1.0 3.0 0.00 0.00 0.00 60 1009.8
20260504223524 72 198 1.0 3.0 0.00 0.00 0.00 59 1009.9
20260504223003 72 204 1.0 3.0 0.00 0.00 0.00 59 1009.9
20260504222504 72 155 1.0 4.0 0.00 0.00 0.00 60 1009.9
20260504222004 71 130 1.0 4.0 0.00 0.00 0.00 61 1009.9
20260504221503 72 125 1.0 2.0 0.00 0.00 0.00 59 1010.0
20260504221003 72 161 1.0 2.0 0.00 0.00 0.00 60 1010.1
20260504220525 72 191 1.0 2.0 0.00 0.00 0.00 59 1010.1
20260504220003 71 188 1.0 3.0 0.00 0.00 0.00 59 1010.2
20260504215503 71 189 1.0 3.0 0.00 0.00 0.00 59 1010.3
20260504215003 72 211 1.0 3.0 0.00 0.00 0.00 59 1010.3
20260504214503 72 200 1.0 3.0 0.00 0.00 0.00 59 1010.4
20260504214003 71 154 1.0 3.0 0.00 0.00 0.00 60 1010.5
20260504213503 71 141 1.0 3.0 0.00 0.00 0.00 60 1010.6
20260504213003 71 151 1.0 2.0 0.00 0.00 0.00 60 1010.6
20260504212524 70 162 1.0 2.0 0.00 0.00 0.00 60 1010.5
20260504212003 70 175 1.0 2.0 0.00 0.00 0.00 62 1010.6
20260504211503 69 162 1.0 3.0 0.00 0.00 0.00 62 1010.8
20260504211003 69 134 1.0 3.0 0.00 0.00 0.00 62 1010.8
20260504210503 69 146 1.0 4.0 0.00 0.00 0.00 62 1010.9
20260504210024 69 177 1.0 4.0 0.00 0.00 0.00 62 1011.0
20260504205503 69 195 1.0 3.0 0.00 0.00 0.00 62 1011.0
20260504205004 69 209 1.0 3.0 0.00 0.00 0.00 63 1011.0
20260504204503 68 175 1.0 4.0 0.00 0.00 0.00 64 1011.2
20260504204003 68 160 1.0 4.0 0.00 0.00 0.00 65 1011.2
20260504203503 67 188 1.0 3.0 0.00 0.00 0.00 65 1011.2
20260504203003 67 196 1.0 5.0 0.00 0.00 0.00 64 1011.3
20260504202503 67 214 1.0 6.0 0.00 0.00 0.00 64 1011.4
20260504202003 67 218 1.0 6.0 0.00 0.00 0.00 64 1011.4
20260504201524 67 171 1.0 2.0 0.00 0.00 0.00 65 1011.5
20260504201003 66 182 1.0 2.0 0.00 0.00 0.00 67 1011.5
20260504200503 66 195 1.0 3.0 0.00 0.00 0.00 67 1011.5
20260504200024 65 184 1.0 3.0 0.00 0.00 0.00 68 1011.6
20260504195503 64 187 1.0 3.0 0.00 0.00 0.00 68 1011.6
20260504195003 64 198 1.0 4.0 0.00 0.00 0.00 71 1011.6
20260504194503 63 196 1.0 4.0 0.00 0.00 0.00 70 1011.6
20260504194003 63 212 1.0 3.0 0.00 0.00 0.00 71 1011.6
20260504193503 63 217 1.0 2.0 0.00 0.00 0.00 72 1011.6
20260504193024 62 201 1.0 2.0 0.00 0.00 0.00 73 1011.7
20260504192524 62 199 1.0 3.0 0.00 0.00 0.00 72 1011.7
20260504192004 62 174 1.0 4.0 0.00 0.00 0.00 73 1011.8
20260504191524 62 167 1.0 4.0 0.00 0.00 0.00 72 1011.8
20260504191004 62 143 1.0 4.0 0.00 0.00 0.00 72 1011.7
20260504190503 62 124 1.0 2.0 0.00 0.00 0.00 73 1011.8
20260504190024 62 151 1.0 4.0 0.00 0.00 0.00 74 1011.8
20260504185503 61 168 1.0 4.0 0.00 0.00 0.00 74 1011.9
20260504185003 61 167 1.0 3.0 0.00 0.00 0.00 74 1011.9
20260504184503 61 191 1.0 3.0 0.00 0.00 0.00 75 1011.9
20260504184004 61 204 1.0 2.0 0.00 0.00 0.00 76 1012.0
20260504183503 60 202 1.0 2.0 0.00 0.00 0.00 76 1012.0
20260504183004 60 208 1.0 2.0 0.00 0.00 0.00 77 1011.9
20260504182524 60 206 1.0 2.0 0.00 0.00 0.00 77 1011.9
20260504182025 60 195 1.0 2.0 0.00 0.00 0.00 77 1011.9
20260504181503 59 207 1.0 3.0 0.00 0.00 0.00 77 1011.9
20260504181004 59 220 1.0 2.0 0.00 0.00 0.00 78 1011.9
20260504180503 59 211 1.0 2.0 0.00 0.00 0.00 77 1012.0
20260504180004 59 189 1.0 2.0 0.00 0.00 0.00 78 1011.9
20260504175503 59 184 1.0 3.0 0.00 0.00 0.00 78 1011.7
20260504175003 59 188 1.0 3.0 0.00 0.00 0.00 78 1011.8
20260504174504 59 186 1.0 2.0 0.00 0.00 0.00 80 1011.7
20260504174003 58 179 1.0 4.0 0.00 0.00 0.00 80 1011.7
20260504173503 58 192 1.0 4.0 0.00 0.00 0.00 80 1011.8
20260504173003 58 197 1.0 3.0 0.00 0.00 0.00 80 1011.8
20260504172503 58 187 1.0 2.0 0.00 0.00 0.00 81 1011.8
20260504172004 58 188 1.0 6.0 0.00 0.00 0.00 81 1011.7
20260504171503 58 190 1.0 6.0 0.00 0.00 0.00 81 1011.7
20260504171004 57 178 1.0 3.0 0.00 0.00 0.00 81 1011.7
20260504170503 57 157 1.0 3.0 0.00 0.00 0.00 82 1011.7
20260504151003 54 179 1.0 4.0 0.00 0.00 0.00 87 1011.4
20260504150503 54 182 1.0 3.0 0.00 0.00 0.00 87 1011.3
20260504141004 53 183 1.0 3.0 0.00 0.00 0.00 90 1010.6
20260504140503 53 183 1.0 4.0 0.00 0.00 0.00 90 1010.5
20260504130505 53 188 1.0 3.0 0.00 0.00 0.00 89 1009.6
20260504110504 56 189 1.0 5.0 0.00 0.00 0.00 82 1008.4
20260504100504 60 183 1.0 3.0 0.00 0.00 0.00 77 1007.7
20260504082004 66 138 1.0 4.0 0.00 0.00 0.00 62 1007.0
20260504081505 66 127 1.0 4.0 0.00 0.00 0.00 62 1006.9
20260504081003 66 129 1.0 2.0 0.00 0.00 0.00 61 1006.9
20260504080503 66 131 0.0 2.0 0.00 0.00 0.00 61 1006.8